�N����,����,�~����,�C��,���x,�C��,����,���ϕ���,�ő�u�ԕ���,�ő厞����,���˗�,�I�_���x,�n�����x,�ő啗���N��,DTYPE
"23/07/27","00:10",0.0,27.4,81.0,1009.7,343.9,1.5,2.4,341.6,0.00,23.9,26.1,"00:05:12",1
"23/07/27","00:20",0.0,27.1,81.9,1009.7,341.3,1.1,2.0,355.5,0.00,23.8,26.1,"00:14:56",1
"23/07/27","00:30",0.0,27.0,82.7,1009.7,344.7,1.3,2.1,339.6,0.00,23.8,26.2,"00:22:08",1
"23/07/27","00:40",0.0,27.0,83.1,1010.0,352.9,1.3,2.6,334.4,0.00,23.9,26.2,"00:34:32",1
"23/07/27","00:50",0.0,27.0,83.3,1010.0,350.8,1.5,2.8,345.8,0.00,24.0,26.1,"00:46:56",1
"23/07/27","01:00",0.0,27.0,83.3,1009.5,347.6,1.1,1.8,0.6,0.00,24.0,26.1,"00:51:04",1
"23/07/27","01:10",0.0,27.0,83.3,1009.7,341.4,1.3,2.6,354.2,0.00,24.0,25.9,"01:02:16",1
"23/07/27","01:20",0.0,26.9,83.4,1009.7,339.0,1.2,2.2,343.7,0.00,23.9,26.3,"01:10:56",1
"23/07/27","01:30",0.0,26.8,83.7,1010.0,337.2,1.0,1.4,335.1,0.00,23.8,26.1,"01:20:24",1
"23/07/27","01:40",0.0,26.6,84.1,1009.3,336.2,1.1,2.1,331.5,0.00,23.7,26.0,"01:33:52",1
"23/07/27","01:50",0.0,26.5,84.6,1009.7,310.3,1.1,2.1,331.4,0.00,23.7,25.9,"01:42:56",1
"23/07/27","02:00",0.0,26.5,84.8,1009.5,298.7,1.2,2.7,338.4,0.00,23.8,25.7,"01:51:20",1
"23/07/27","02:10",0.0,26.5,84.9,1009.5,299.7,1.2,2.4,324.2,0.00,23.8,25.7,"02:02:16",1
"23/07/27","02:20",0.0,26.3,85.0,1009.3,312.5,0.7,1.4,298.3,0.00,23.6,26.2,"02:10:56",1
"23/07/27","02:30",0.0,26.2,85.5,1009.5,336.0,1.2,2.5,334.6,0.00,23.6,26.0,"02:28:08",1
"23/07/27","02:40",0.0,26.1,85.9,1009.3,334.4,1.5,2.5,343.7,0.00,23.6,25.7,"02:35:36",1
"23/07/27","02:50",0.0,26.0,86.3,1010.0,332.4,1.3,2.4,343.9,0.00,23.6,25.8,"02:42:08",1
"23/07/27","03:00",0.0,25.9,86.7,1009.7,335.0,1.6,2.5,346.9,0.00,23.6,25.8,"02:56:32",1
"23/07/27","03:10",0.0,25.8,87.1,1009.7,339.8,1.6,2.6,341.5,0.00,23.5,25.8,"03:07:28",1
"23/07/27","03:20",0.0,25.8,87.3,1009.3,335.0,1.6,3.3,346.6,0.00,23.6,25.7,"03:11:36",1
"23/07/27","03:30",0.0,25.7,87.4,1009.7,309.9,1.0,2.0,342.0,0.00,23.5,25.7,"03:20:16",1
"23/07/27","03:40",0.0,25.7,87.6,1009.7,304.4,1.2,2.1,313.1,0.00,23.5,25.7,"03:36:48",1
"23/07/27","03:50",0.0,25.8,87.6,1009.7,328.8,1.6,2.9,323.2,0.00,23.6,25.6,"03:45:12",1
"23/07/27","04:00",0.0,25.8,87.5,1010.0,328.9,1.2,2.2,343.6,0.00,23.6,25.7,"03:58:40",1
"23/07/27","04:10",0.0,25.7,87.5,1009.7,318.5,1.6,2.9,344.5,0.00,23.5,25.6,"04:07:44",1
"23/07/27","04:20",0.0,25.6,87.6,1010.0,334.2,1.5,2.4,341.3,0.00,23.4,25.6,"04:10:48",1
"23/07/27","04:30",0.0,25.5,87.8,1009.7,325.8,1.3,2.7,338.9,0.00,23.4,25.4,"04:23:04",1
"23/07/27","04:40",0.0,25.3,87.9,1009.5,319.3,0.5,1.2,332.3,0.00,23.2,25.4,"04:30:24",1
"23/07/27","04:50",0.0,25.3,88.3,1010.2,337.4,1.0,2.1,343.5,0.00,23.3,25.4,"04:48:00",1
"23/07/27","05:00",0.0,25.3,88.5,1010.0,322.9,1.3,2.1,346.1,0.00,23.3,25.4,"04:52:48",1
"23/07/27","05:10",0.0,25.3,88.7,1010.0,307.1,1.0,1.8,323.6,0.00,23.3,25.5,"05:05:12",1
"23/07/27","05:20",0.0,25.3,88.8,1010.2,326.6,1.5,2.5,311.7,0.00,23.4,25.5,"05:15:12",1
"23/07/27","05:30",0.0,25.4,88.9,1010.2,327.7,1.2,2.2,335.7,0.00,23.5,25.2,"05:27:04",1
"23/07/27","05:40",0.0,25.5,89.0,1010.0,329.7,1.3,2.1,335.1,0.00,23.6,25.4,"05:32:24",1
"23/07/27","05:50",0.0,25.5,88.9,1010.2,339.0,1.7,3.1,343.0,0.00,23.6,25.4,"05:45:28",1
"23/07/27","06:00",0.0,25.8,88.9,1010.2,337.9,2.0,4.1,352.5,0.01,23.9,25.4,"05:54:48",1
"23/07/27","06:10",0.0,26.1,88.6,1009.7,334.2,1.8,3.4,336.3,0.02,24.1,25.3,"06:00:56",1
"23/07/27","06:20",0.0,26.5,88.1,1010.2,338.9,1.2,3.1,336.4,0.04,24.4,25.4,"06:12:24",1
"23/07/27","06:30",0.0,27.0,87.1,1010.2,348.6,1.2,2.2,348.0,0.05,24.7,25.3,"06:25:36",1
"23/07/27","06:40",0.0,27.5,85.7,1010.4,352.7,1.0,2.1,338.9,0.07,24.9,25.3,"06:31:44",1
"23/07/27","06:50",0.0,28.3,83.8,1010.0,10.7,0.7,1.6,343.1,0.09,25.3,25.3,"06:41:12",1
"23/07/27","07:00",0.0,28.9,81.4,1010.0,339.5,0.6,1.8,329.3,0.11,25.4,25.2,"06:59:20",1
"23/07/27","07:10",0.0,29.5,79.4,1009.7,343.2,0.8,3.3,351.3,0.13,25.6,25.2,"07:01:12",1
"23/07/27","07:20",0.0,29.8,77.3,1009.7,321.2,0.6,1.2,233.2,0.15,25.4,25.3,"07:10:16",1
"23/07/27","07:30",0.0,30.7,74.7,1010.0,44.5,0.6,1.4,33.8,0.17,25.7,25.2,"07:25:44",1
"23/07/27","07:40",0.0,31.5,72.3,1010.4,75.2,0.5,1.1,64.8,0.19,25.9,25.2,"07:30:56",1
"23/07/27","07:50",0.0,32.1,68.9,1010.9,54.5,0.7,1.3,52.3,0.22,25.7,25.3,"07:42:16",1
"23/07/27","08:00",0.0,32.5,68.7,1011.2,123.2,0.3,1.6,142.2,0.24,26.0,25.5,"07:52:32",1
"23/07/27","08:10",0.0,33.0,68.4,1011.6,132.8,0.5,1.3,134.6,0.26,26.4,25.5,"08:01:12",1
"23/07/27","08:20",0.0,32.9,65.8,1011.6,129.1,0.6,1.7,151.2,0.28,25.7,25.4,"08:12:24",1
"23/07/27","08:30",0.0,32.5,66.6,1011.6,168.5,1.0,2.0,188.0,0.30,25.5,25.5,"08:25:52",1
"23/07/27","08:40",0.0,33.0,66.4,1011.9,144.1,0.7,1.8,108.4,0.32,25.9,25.5,"08:39:04",1
"23/07/27","08:50",0.0,32.8,65.9,1011.9,180.4,1.2,3.2,210.0,0.34,25.6,25.6,"08:43:52",1
"23/07/27","09:00",0.0,32.7,65.0,1011.9,187.9,1.5,2.8,205.5,0.36,25.3,25.6,"08:54:56",1
"23/07/27","09:10",0.0,32.6,65.1,1012.1,195.2,1.5,3.4,227.3,0.38,25.2,25.6,"09:05:52",1
"23/07/27","09:20",0.0,33.3,64.9,1011.9,145.3,0.8,2.0,174.3,0.40,25.8,25.7,"09:16:48",1
"23/07/27","09:30",0.0,33.9,62.6,1012.1,154.7,1.1,1.9,119.1,0.42,25.8,25.5,"09:21:12",1
"23/07/27","09:40",0.0,34.5,59.4,1012.6,81.7,0.7,1.8,119.4,0.43,25.5,25.7,"09:30:40",1
"23/07/27","09:50",0.0,34.9,58.2,1012.3,47.2,1.0,2.2,10.1,0.45,25.5,25.8,"09:43:28",1
"23/07/27","10:00",0.0,35.1,57.9,1011.9,25.6,1.1,2.2,5.5,0.46,25.6,25.9,"09:53:44",1
"23/07/27","10:10",0.0,35.3,56.7,1012.1,63.0,0.7,1.6,69.4,0.47,25.4,25.9,"10:01:20",1
"23/07/27","10:20",0.0,35.9,56.0,1011.9,106.8,0.6,2.1,123.1,0.48,25.8,26.1,"10:10:02",1
"23/07/27","10:30",0.0,35.8,55.3,1012.1,137.4,0.8,2.0,141.4,0.49,25.5,26.0,"10:20:24",1
"23/07/27","10:40",0.0,35.9,53.5,1011.9,19.1,1.0,3.1,353.2,0.50,25.0,26.3,"10:38:48",1
"23/07/27","10:50",0.0,36.2,53.3,1012.1,6.7,1.0,2.8,10.6,0.51,25.2,26.4,"10:44:40",1
"23/07/27","11:00",0.0,36.4,52.8,1011.9,40.5,1.0,2.2,16.2,0.52,25.3,26.2,"10:50:32",1
"23/07/27","11:10",0.0,36.4,52.3,1011.4,195.6,1.1,2.6,232.6,0.53,25.1,26.5,"11:05:04",1
"23/07/27","11:20",0.0,36.5,52.0,1011.6,142.7,1.1,2.4,190.3,0.54,25.1,26.6,"11:18:48",1
"23/07/27","11:30",0.0,36.6,50.7,1011.6,165.1,1.3,2.8,226.2,0.54,24.8,26.6,"11:26:56",1
"23/07/27","11:40",0.0,36.4,49.1,1011.4,232.0,1.7,3.6,232.0,0.55,24.0,26.6,"11:36:08",1
"23/07/27","11:50",0.0,36.7,49.5,1011.4,187.1,1.7,3.2,216.8,0.56,24.4,26.7,"11:40:48",1
"23/07/27","12:00",0.0,37.3,48.0,1011.2,164.8,1.1,3.6,193.2,0.56,24.5,26.8,"11:54:32",1
"23/07/27","12:10",0.0,37.3,47.3,1010.9,240.7,1.3,4.0,42.1,0.57,24.2,26.7,"12:02:08",1
"23/07/27","12:20",0.0,37.6,47.7,1011.2,271.3,1.0,3.6,342.8,0.56,24.6,27.2,"12:13:12",1
"23/07/27","12:30",0.0,38.3,47.5,1010.7,169.2,1.0,1.9,103.5,0.58,25.2,27.2,"12:29:36",1
"23/07/27","12:40",0.0,38.6,45.7,1010.9,127.8,1.0,2.2,126.4,0.55,24.8,27.2,"12:33:36",1
"23/07/27","12:50",0.0,39.0,44.7,1010.9,122.4,0.8,2.7,30.2,0.55,24.8,27.5,"12:42:24",1
"23/07/27","13:00",0.0,39.0,44.4,1010.9,153.9,1.1,2.7,160.7,0.55,24.7,27.4,"12:50:08",1
"23/07/27","13:10",0.0,38.7,42.6,1010.7,170.9,1.2,4.2,222.7,0.54,23.8,27.4,"13:07:36",1
"23/07/27","13:20",0.0,38.1,41.6,1010.2,206.1,2.2,3.6,234.7,0.54,22.8,27.6,"13:13:20",1
"23/07/27","13:30",0.0,38.4,41.8,1010.0,208.2,1.5,4.1,224.3,0.53,23.2,27.9,"13:20:24",1
"23/07/27","13:40",0.0,38.1,44.9,1010.0,263.9,1.2,3.3,236.3,0.42,24.1,27.7,"13:30:02",1
"23/07/27","13:50",0.0,38.2,43.7,1009.5,304.1,1.3,2.9,347.3,0.52,23.7,27.7,"13:43:44",1
"23/07/27","14:00",0.0,38.9,40.2,1009.5,286.2,0.8,2.8,336.8,0.51,23.0,27.9,"13:58:32",1
"23/07/27","14:10",0.0,38.3,41.5,1009.5,328.8,1.2,2.6,322.2,0.39,23.0,27.9,"14:00:24",1
"23/07/27","14:20",0.0,38.6,42.0,1009.5,325.0,1.1,2.6,317.1,0.48,23.4,28.0,"14:10:24",1
"23/07/27","14:30",0.0,38.7,41.2,1009.5,330.8,0.7,3.1,333.9,0.35,23.2,28.1,"14:26:16",1
"23/07/27","14:40",0.0,38.3,42.7,1009.3,358.8,0.5,2.7,337.3,0.23,23.4,28.2,"14:33:36",1
"23/07/27","14:50",0.0,37.2,43.3,1009.5,137.3,0.7,2.4,148.4,0.13,22.7,28.2,"14:47:36",1
"23/07/27","15:00",0.0,38.0,42.4,1009.0,45.0,0.7,1.9,29.7,0.29,23.0,28.1,"14:50:08",1
"23/07/27","15:10",0.0,37.6,42.3,1008.8,50.6,0.7,2.5,24.8,0.15,22.7,28.0,"15:01:12",1
"23/07/27","15:20",0.0,37.7,43.3,1008.6,26.8,0.8,2.2,4.2,0.17,23.1,28.1,"15:10:56",1
"23/07/27","15:30",0.0,37.2,44.4,1009.0,315.6,0.5,1.0,317.8,0.08,23.1,28.2,"15:27:20",1
"23/07/27","15:40",0.0,36.6,49.1,1008.6,313.3,0.6,1.7,134.8,0.06,24.2,28.2,"15:32:16",1
"23/07/27","15:50",0.0,35.2,54.2,1008.3,358.8,1.5,4.2,347.2,0.06,24.6,28.2,"15:43:20",1
"23/07/27","16:00",0.0,34.2,58.1,1008.3,348.8,1.3,3.9,333.6,0.06,24.8,27.9,"15:54:40",1
"23/07/27","16:10",0.0,33.6,58.8,1007.8,358.7,1.6,4.2,347.8,0.05,24.5,28.1,"16:08:48",1
"23/07/27","16:20",0.0,33.4,58.7,1007.4,349.9,1.6,3.4,347.4,0.04,24.2,28.1,"16:14:56",1
"23/07/27","16:30",0.0,33.4,60.0,1007.1,13.7,1.3,2.8,52.8,0.02,24.6,28.0,"16:26:08",1
"23/07/27","16:40",0.0,33.1,61.3,1006.9,355.9,1.2,3.1,22.7,0.01,24.7,27.9,"16:32:40",1
"23/07/27","16:50",0.0,32.8,61.4,1006.9,316.0,0.8,1.9,305.7,0.01,24.4,27.7,"16:48:32",1
"23/07/27","17:00",0.0,32.8,62.3,1006.7,343.5,0.7,2.9,333.4,0.01,24.7,27.9,"16:51:12",1
"23/07/27","17:10",0.0,32.7,62.1,1006.4,291.0,0.7,1.8,348.5,0.02,24.5,27.7,"17:04:56",1
"23/07/27","17:20",0.0,32.7,62.2,1006.4,332.3,0.7,1.9,344.0,0.01,24.6,27.6,"17:16:24",1
"23/07/27","17:30",0.0,32.7,62.2,1006.9,330.9,0.5,1.8,350.3,0.00,24.6,27.8,"17:29:44",1
"23/07/27","17:40",0.0,32.6,62.7,1007.1,343.5,1.2,2.4,351.4,0.01,24.6,27.7,"17:36:56",1
"23/07/27","17:50",0.0,32.5,64.5,1007.1,355.9,1.0,2.5,340.1,0.00,25.0,27.7,"17:45:04",1
"23/07/27","18:00",0.0,32.1,65.4,1007.4,318.0,1.0,1.7,327.5,0.00,24.8,27.5,"17:51:20",1
"23/07/27","18:10",0.0,32.1,66.0,1007.6,273.8,0.7,1.8,238.2,0.00,25.0,27.3,"18:00:56",1
"23/07/27","18:20",0.0,31.9,66.5,1007.6,275.9,0.7,1.9,239.0,0.00,24.9,27.7,"18:13:20",1
"23/07/27","18:30",0.0,31.9,66.9,1007.8,337.0,0.6,1.0,331.0,0.00,25.0,27.7,"18:20:08",1
"23/07/27","18:40",0.0,31.5,67.9,1008.1,271.0,1.1,3.2,254.7,0.00,24.9,27.3,"18:36:24",1
"23/07/27","18:50",0.0,31.1,68.3,1008.1,318.2,1.7,7.3,337.1,0.00,24.6,27.4,"18:47:36",1
"23/07/27","19:00",0.0,30.1,71.3,1007.6,318.6,2.3,4.9,328.6,0.00,24.4,27.4,"18:59:36",1
"23/07/27","19:10",0.0,29.5,74.1,1007.1,313.9,2.1,4.4,344.8,0.00,24.4,27.2,"19:06:24",1
"23/07/27","19:20",0.0,29.1,74.7,1006.9,313.6,1.5,4.8,337.2,0.00,24.2,27.4,"19:10:24",1
"23/07/27","19:30",0.0,29.0,74.1,1007.4,273.3,1.3,2.4,299.1,0.00,24.0,27.4,"19:20:48",1
"23/07/27","19:40",0.0,29.1,74.1,1007.6,258.6,1.2,2.5,239.1,0.00,24.1,27.2,"19:34:00",1
"23/07/27","19:50",0.0,29.1,74.4,1007.8,275.6,1.0,2.2,347.9,0.00,24.1,27.2,"19:42:48",1
"23/07/27","20:00",0.0,29.0,74.9,1007.6,267.8,0.5,1.2,246.6,0.00,24.1,27.3,"19:52:16",1
"23/07/27","20:10",0.0,28.9,75.8,1008.1,269.1,0.7,2.2,238.8,0.00,24.2,27.3,"20:05:12",1
"23/07/27","20:20",0.0,28.8,76.7,1008.3,301.1,1.2,2.9,339.3,0.00,24.3,27.0,"20:16:56",1
"23/07/27","20:30",0.0,28.6,78.0,1008.1,292.5,1.0,2.2,294.3,0.00,24.4,27.0,"20:29:36",1
"23/07/27","20:40",0.0,28.3,78.5,1008.3,302.9,1.2,2.6,333.6,0.00,24.2,26.9,"20:30:40",1
"23/07/27","20:50",0.0,28.3,79.3,1008.6,282.5,0.8,2.0,275.1,0.00,24.4,27.0,"20:42:24",1
"23/07/27","21:00",0.0,28.1,80.0,1008.6,316.5,1.7,3.3,336.8,0.00,24.4,27.0,"20:51:04",1
"23/07/27","21:10",0.0,28.1,80.3,1009.0,308.3,1.3,2.5,306.4,0.00,24.4,27.0,"21:00:16",1
"23/07/27","21:20",0.0,28.1,80.6,1008.8,331.6,1.2,2.8,343.1,0.00,24.5,27.0,"21:14:56",1
"23/07/27","21:30",0.0,27.8,80.9,1008.8,319.8,1.6,3.4,342.7,0.00,24.3,26.9,"21:27:28",1
"23/07/27","21:40",0.0,27.7,81.0,1009.0,332.9,2.3,4.7,327.0,0.00,24.2,26.8,"21:35:04",1
"23/07/27","21:50",0.0,27.7,81.8,1008.8,309.6,1.7,2.8,312.1,0.00,24.3,26.7,"21:40:16",1
"23/07/27","22:00",0.0,27.5,82.7,1008.6,318.6,1.6,2.6,344.2,0.00,24.3,26.8,"21:56:00",1
"23/07/27","22:10",0.0,27.4,83.3,1009.0,318.1,1.7,3.2,304.3,0.00,24.4,26.8,"22:07:28",1
"23/07/27","22:20",0.0,27.4,83.6,1008.8,330.6,1.6,2.9,329.5,0.00,24.4,26.7,"22:11:52",1
"23/07/27","22:30",0.0,27.3,84.0,1008.6,312.1,1.2,2.6,334.6,0.00,24.4,26.8,"22:24:00",1
"23/07/27","22:40",0.0,27.1,84.4,1008.8,277.1,0.8,1.4,300.5,0.00,24.3,26.5,"22:36:48",1
"23/07/27","22:50",0.0,27.1,84.9,1009.0,303.9,1.0,1.8,332.7,0.00,24.4,26.5,"22:48:16",1
"23/07/27","23:00",0.0,26.9,85.1,1008.8,276.9,1.1,2.9,328.4,0.00,24.2,26.7,"22:59:44",1
"23/07/27","23:10",0.0,26.8,85.3,1009.0,310.0,1.0,2.0,310.7,0.00,24.2,26.6,"23:06:08",1
"23/07/27","23:20",0.0,26.8,85.5,1009.0,301.7,1.1,2.0,326.8,0.00,24.2,26.3,"23:11:36",1
"23/07/27","23:30",0.0,26.8,85.6,1008.8,305.5,1.2,2.1,335.5,0.00,24.2,26.4,"23:21:52",1
"23/07/27","23:40",0.0,26.8,85.8,1009.0,309.4,1.1,1.7,312.1,0.00,24.3,26.3,"23:31:12",1
"23/07/27","23:50",0.0,26.7,86.0,1009.0,295.0,0.8,1.2,269.8,0.00,24.2,26.4,"23:43:44",1
"23/07/27","24:00",0.0,26.7,86.2,1009.0,286.5,0.8,1.6,305.0,0.00,24.2,26.3,"23:57:20",1
